Theta_e
303 303 303 303 303 303 304 304 305 305 306 306 306 306 308 310 307 311 312 312 314 314 311 314 315 318 327 324 316 320 327 332 333 334 331 329 330 329 328 328 330 331 332 336 341
302 302 302 303 303 304 304 304 304 304 305 305 305 305 306 307 310 309 315 315 315 313 315 315 314 317 329 326 317 322 327 328 328 329 332 329 329 328 329 329 329 330 332 341 339
302 302 302 302 302 303 303 303 304 304 304 304 305 305 305 305 308 312 312 312 312 315 317 316 313 318 329 323 323 321 324 326 327 326 328 331 329 329 328 328 327 328 335 340 338
303 303 302 302 302 303 303 303 304 304 303 304 304 305 303 306 306 313 310 311 312 318 318 314 314 317 328 332 326 322 320 321 322 319 323 327 330 328 327 326 327 325 334 339 336
303 303 303 302 302 302 302 303 303 303 303 303 304 304 304 304 305 308 308 311 311 315 317 314 314 315 324 329 331 324 320 319 322 321 318 322 327 328 327 327 328 329 334 339 336
304 304 303 302 302 301 302 302 302 302 303 303 303 303 303 304 302 304 306 309 309 311 314 315 313 313 314 324 330 330 327 329 326 322 320 322 323 326 328 326 328 333 335 337 337
302 303 303 302 301 301 301 301 302 302 302 303 303 303 303 303 302 303 306 307 307 310 312 313 312 312 312 317 324 322 324 323 327 323 322 318 322 323 327 327 327 329 333 335 336
303 301 303 302 302 301 301 300 300 301 302 302 303 303 303 301 302 302 303 303 307 310 312 312 314 311 309 313 323 326 324 330 327 326 323 321 323 322 323 327 328 327 329 332 334
303 301 301 303 302 301 300 299 295 301 301 302 303 303 302 301 302 302 302 304 306 307 311 312 314 311 309 310 320 326 329 329 328 325 325 324 321 321 320 324 327 326 327 329 331
302 302 301 303 302 301 299 298 298 302 302 302 302 301 300 301 303 304 305 304 305 307 310 314 316 310 310 311 318 320 326 328 330 327 327 327 321 319 319 319 327 326 326 327 330
302 302 301 302 302 300 295 298 300 302 301 301 301 301 300 301 302 302 305 306 307 308 311 315 318 317 310 310 312 316 319 322 327 327 329 328 328 323 320 318 318 317 319 326 327
302 302 302 302 301 297 298 299 299 299 300 299 300 300 300 299 300 300 301 306 308 311 309 312 316 314 312 311 312 312 314 318 319 321 329 329 327 323 321 321 317 316 315 317 326
302 302 301 301 300 299 297 298 298 299 299 299 300 301 301 300 300 301 301 304 306 309 310 311 313 313 314 312 312 313 313 314 317 314 313 313 317 321 321 321 320 316 317 316 316
301 300 300 300 298 296 299 297 298 299 298 300 299 301 302 302 301 301 301 303 304 307 310 311 310 313 314 315 312 313 312 312 317 318 322 315 326 320 319 320 322 321 315 315 315
300 300 300 296 296 297 297 298 298 299 299 299 300 301 300 302 303 303 301 303 305 307 310 314 311 312 316 314 311 311 312 311 316 317 317 315 320 318 317 319 319 320 313 312 313
300 300 298 297 297 298 298 298 299 298 300 297 299 301 301 301 302 303 303 304 304 305 306 306 306 310 313 313 310 309 310 311 313 315 318 316 317 319 316 317 315 317 311 308 305
300 300 299 296 299 298 297 298 300 301 298 297 298 300 301 300 300 302 303 305 305 306 305 308 309 309 308 313 310 308 309 313 316 318 316 313 318 318 316 309 307 307 306 306 307
301 300 297 298 298 298 297 299 300 297 297 298 299 299 301 300 300 302 303 303 306 306 310 311 309 311 310 314 313 309 309 313 312 315 312 312 315 312 313 312 306 306 306 306 308
300 299 299 297 297 297 298 300 299 298 298 297 298 299 298 300 300 302 303 303 304 304 307 310 314 311 312 312 311 309 310 309 309 307 311 310 310 309 307 306 306 307 309 309 309
300 299 298 297 297 297 297 299 297 297 297 298 299 299 298 299 299 302 304 300 302 302 302 304 309 310 312 312 311 309 309 311 308 305 307 310 309 308 306 306 307 310 309 309 309
299 299 298 298 298 297 300 297 294 297 298 298 299 297 299 300 299 302 301 300 300 301 303 305 309 311 310 315 313 310 310 310 307 308 310 309 306 306 306 306 309 308 308 307 307
299 298 298 298 298 296 299 295 296 297 298 298 297 298 298 299 298 301 302 302 300 302 305 304 306 309 311 308 310 310 309 309 308 307 306 307 307 305 308 308 307 307 307 306 306
296 296 298 296 300 300 295 296 296 297 298 298 298 298 298 298 297 300 302 299 300 303 303 304 307 307 312 311 311 314 311 309 308 306 308 307 307 305 307 305 306 306 305 305 305
299 300 296 296 294 295 294 296 296 297 297 298 298 298 298 298 298 301 299 300 302 302 302 303 305 306 306 306 306 312 313 312 309 307 311 309 306 305 305 306 305 305 305 305 304
298 295 292 298 296 293 293 296 297 298 296 297 298 297 297 294 298 297 297 299 300 299 303 303 304 304 304 304 306 306 309 311 313 310 308 310 306 305 306 304 305 303 304 303 302
297 295 291 291 291 293 294 296 296 296 297 296 297 297 295 295 298 298 297 296 299 298 300 302 304 302 302 302 304 306 306 308 310 309 310 310 311 306 303 303 301 302 302 301 300
295 294 298 295 294 294 297 295 294 294 296 296 296 296 296 298 297 297 297 297 297 297 299 301 302 300 301 300 302 302 302 305 307 308 309 310 308 306 303 302 302 302 300 299 298
Wind_Speed
14 15 16 17 17 16 17 17 16 15 16 17 19 19 21 23 21 16 12 12 9 11 19 19 14 9 9 3 4 4 3 5 12 11 8 6 5 2 7 7 3 4 7 7 29
12 14 14 15 17 18 16 16 17 16 16 17 18 19 19 21 20 15 9 7 14 20 12 10 7 9 4 3 3 4 3 9 10 10 7 5 5 8 2 3 4 7 8 26 23
9 11 13 15 16 18 20 18 16 16 15 16 17 19 19 18 10 2 8 12 12 9 12 7 4 3 2 2 4 4 4 9 12 11 12 11 10 4 7 6 7 11 12 16 18
8 9 10 12 14 16 17 19 16 15 15 15 16 17 20 10 4 5 11 14 15 5 9 7 4 2 3 5 4 4 9 11 7 13 6 10 11 8 7 7 3 13 18 15 15
12 11 10 10 11 14 17 17 18 16 15 14 15 15 12 4 11 14 16 13 14 7 6 8 8 5 6 4 4 3 7 8 7 13 13 7 9 9 9 3 4 3 18 17 15
10 12 12 12 11 12 14 16 17 18 16 14 13 14 12 12 13 19 16 12 11 15 8 8 5 8 7 5 8 6 12 11 9 10 16 8 10 8 6 7 5 11 10 12 15
12 12 9 11 13 14 14 16 17 18 18 15 12 11 13 17 14 19 15 13 15 12 10 10 11 9 3 3 7 4 4 7 12 8 10 10 9 9 8 9 7 6 9 10 13
13 14 10 12 12 15 18 19 19 20 19 15 12 10 8 17 15 17 19 22 14 13 13 15 12 7 6 3 3 7 2 10 10 14 7 6 10 8 10 9 6 10 8 9 11
14 15 14 13 14 15 18 23 23 19 17 12 8 10 10 7 11 15 16 18 14 16 14 13 8 5 7 9 6 9 9 12 11 17 12 9 5 9 12 9 9 8 10 9 9
13 15 15 10 12 16 21 23 15 12 4 3 7 5 8 6 11 15 13 19 16 10 11 10 6 7 8 11 18 7 10 8 16 11 17 17 10 12 14 9 8 8 8 9 10
12 14 13 7 9 13 19 14 6 2 5 8 11 10 14 13 8 14 13 14 13 6 12 13 9 16 17 17 11 8 11 15 10 13 13 19 15 13 14 8 5 6 9 7 9
14 13 10 7 8 11 10 7 4 5 10 16 16 16 23 21 18 16 19 9 15 14 12 9 21 15 12 14 15 18 15 9 5 5 13 10 15 12 13 19 6 8 9 9 4
14 13 11 6 8 3 6 4 6 5 5 8 6 7 8 10 17 19 15 13 15 16 17 20 10 18 18 16 17 18 19 9 7 5 4 3 8 11 11 18 19 11 7 7 6
12 11 7 5 2 3 3 6 5 1 3 4 0 1 5 5 8 19 25 14 7 14 10 16 21 19 21 19 17 19 12 7 9 8 3 3 6 10 16 17 20 20 8 7 8
10 6 3 2 4 3 5 8 2 1 3 3 4 5 7 7 10 7 16 13 11 12 5 3 13 18 18 21 15 9 7 12 7 5 5 6 2 5 7 12 17 20 9 8 8
5 3 3 2 1 4 7 1 2 1 3 3 4 7 9 9 7 6 5 11 6 12 12 10 11 7 20 16 11 4 5 8 6 4 4 10 7 4 7 13 7 13 9 6 9
5 6 4 1 3 5 6 2 2 3 2 5 3 5 12 8 12 8 11 5 8 4 7 6 8 9 5 21 13 12 10 3 4 5 7 18 8 10 5 6 9 9 9 9 7
11 8 5 4 3 4 4 1 4 2 1 6 8 15 4 8 8 10 5 10 6 4 3 4 7 11 7 11 13 19 17 5 6 7 4 13 9 6 21 13 10 9 8 9 9
13 6 3 5 3 3 2 3 2 3 5 9 14 3 4 4 4 6 4 4 4 3 5 3 6 4 11 11 20 17 19 10 4 1 4 6 6 2 7 7 10 12 11 9 8
7 4 3 4 4 2 0 1 3 4 7 6 4 5 4 7 7 8 2 3 2 2 3 5 6 2 7 11 19 19 19 14 1 4 3 6 5 4 8 11 12 13 11 9 8
4 2 2 4 2 1 2 3 3 4 5 4 6 6 6 6 7 5 8 2 3 4 2 3 4 2 5 5 14 12 15 9 5 4 4 4 3 4 10 14 15 10 7 7 7
3 1 3 6 2 1 2 2 4 5 2 3 4 7 7 9 4 4 5 5 5 4 1 1 4 4 6 3 10 18 15 25 9 6 2 3 2 10 16 17 14 9 7 7 8
2 1 3 5 2 1 0 2 3 2 5 2 3 6 7 6 4 3 5 6 6 5 2 2 2 4 0 3 3 4 8 17 4 3 5 4 3 2 12 11 9 9 7 6 8
2 1 2 2 1 1 3 2 4 2 2 4 4 4 5 5 7 2 6 7 7 8 3 2 0 2 1 3 3 5 9 6 11 3 3 3 10 7 8 8 8 7 7 7 8
2 1 0 1 2 1 1 1 4 3 3 4 4 4 3 3 6 6 8 7 5 14 5 3 1 1 1 1 1 2 7 4 3 4 5 4 12 9 8 8 6 7 7 9 8
3 3 2 2 2 2 3 2 3 4 2 3 2 8 5 4 1 4 6 6 3 9 8 7 1 2 1 1 3 2 5 7 5 4 5 4 7 10 7 5 7 8 9 8 8
2 2 2 4 3 1 2 3 3 4 5 5 6 8 7 5 6 5 1 6 8 5 5 6 4 3 2 5 4 3 2 2 2 2 2 2 10 10 6 7 7 8 8 7 7
Wind_Direction
12 7 3 358 360 3 0 358 359 359 352 348 344 341 338 337 334 329 299 257 281 291 311 319 316 346 289 257 269 304 274 239 248 259 275 89 148 71 343 111 102 113 62 123 134
0 359 356 354 353 350 354 353 351 351 349 344 343 341 335 333 328 306 356 307 288 280 291 303 318 352 292 236 230 214 232 248 265 269 310 329 179 148 139 211 170 124 89 113 128
350 344 344 343 343 343 342 346 347 346 345 342 345 339 332 334 306 96 29 13 359 292 227 263 279 299 231 305 204 217 235 267 275 30 7 339 324 256 171 219 183 178 144 137 140
334 332 331 335 336 337 339 338 343 344 342 339 338 339 331 323 273 112 357 347 4 357 192 194 215 202 236 212 249 268 248 273 330 347 9 325 325 296 177 246 264 173 151 148 153
315 318 319 325 330 334 336 334 335 336 337 336 336 337 346 290 253 273 328 346 356 354 232 212 210 216 207 216 215 222 249 259 319 335 311 303 297 284 286 198 327 99 148 155 161
312 300 305 322 322 328 332 333 328 325 328 328 329 329 313 277 270 283 297 311 336 335 309 245 257 240 278 211 206 170 239 266 305 314 304 276 275 270 274 265 132 132 151 158 171
338 325 280 306 317 326 329 328 322 316 314 317 315 311 288 259 281 288 291 296 303 295 294 291 263 271 278 263 211 149 189 297 256 255 282 310 271 251 242 294 202 189 166 174 178
339 335 301 309 318 324 324 322 313 307 304 304 302 294 263 272 258 270 271 265 270 270 267 280 294 289 253 266 141 194 200 227 217 231 255 289 270 268 220 241 250 176 204 190 185
336 338 322 307 316 322 322 317 312 301 294 288 279 241 277 285 248 272 269 261 259 270 286 242 238 233 201 230 183 204 215 223 227 217 218 234 280 256 265 228 204 220 205 191 187
336 333 332 297 312 322 324 318 318 301 311 249 257 295 249 262 333 313 291 250 235 241 273 226 232 204 221 199 208 166 221 220 214 197 206 231 248 281 289 294 191 242 235 202 184
331 329 327 308 314 326 337 341 17 173 359 297 301 245 286 302 295 296 283 262 230 220 226 204 211 211 209 222 248 243 211 212 199 216 189 220 240 252 292 297 286 276 275 233 194
321 321 313 297 312 331 357 11 46 322 295 287 267 267 271 273 281 272 276 243 229 214 214 249 223 220 227 228 223 242 254 225 175 44 179 209 242 257 270 281 247 240 257 286 249
313 314 309 287 312 6 21 37 316 343 282 298 271 294 300 250 251 259 265 250 250 231 218 223 242 209 227 225 226 228 234 237 176 122 23 358 254 223 238 254 273 280 262 299 308
310 310 305 290 317 352 48 351 338 291 306 293 77 92 308 291 261 250 237 246 223 249 254 239 237 250 214 227 221 232 223 245 145 139 179 112 262 220 229 225 238 263 228 238 264
313 302 248 173 348 2 343 327 264 216 292 339 320 327 305 257 302 334 208 234 219 237 238 214 211 231 228 222 220 247 196 220 149 137 124 170 219 235 263 224 222 227 228 223 228
290 221 127 69 41 37 351 356 242 244 247 326 307 323 322 320 259 271 291 225 237 237 235 259 298 296 237 222 205 221 271 180 165 100 253 192 184 203 197 217 217 214 163 94 51
192 171 128 51 29 359 351 310 257 244 335 310 281 296 309 301 314 252 216 216 212 199 232 239 248 242 292 204 188 200 194 136 166 186 229 173 187 235 250 73 90 77 70 68 64
163 157 112 71 14 355 316 259 253 203 333 305 317 309 299 346 334 333 242 229 206 322 281 249 222 190 217 216 197 202 198 167 172 193 161 154 218 245 227 255 99 91 90 76 66
154 134 120 339 15 30 307 258 3 354 348 329 317 12 318 16 318 327 247 295 48 99 308 196 236 159 192 205 210 195 213 212 133 81 121 187 238 208 146 117 101 100 90 86 86
142 164 64 6 355 4 110 334 298 334 338 331 297 351 323 336 341 341 291 7 15 130 122 299 284 340 217 214 233 192 199 214 254 134 197 192 193 205 164 136 121 113 110 105 101
97 64 38 329 360 38 336 353 305 279 319 320 339 317 325 339 321 322 6 32 342 312 106 283 259 137 2 218 192 196 201 206 185 198 163 133 227 305 148 137 123 111 107 113 99
78 62 342 351 312 22 336 353 321 299 147 291 295 278 316 331 315 337 331 343 330 309 51 340 304 291 217 210 284 223 208 196 190 228 231 128 353 340 112 114 110 115 120 112 105
95 148 22 335 316 58 143 267 258 300 333 354 296 355 312 303 316 329 335 331 14 6 2 335 52 328 290 79 255 206 262 193 192 151 189 129 176 58 106 88 87 91 114 91 78
112 87 342 47 138 330 2 3 299 229 263 277 251 271 333 316 343 323 349 356 16 4 327 302 79 191 81 318 329 326 225 297 201 113 142 155 135 141 123 119 100 89 102 90 82
9 111 85 64 105 6 295 290 294 309 217 277 301 324 105 312 320 6 359 347 323 1 341 28 133 77 32 84 233 272 360 60 264 183 136 153 150 150 104 98 108 105 96 84 75
144 154 202 138 152 254 170 225 296 307 282 297 282 319 324 180 286 310 343 9 354 336 354 338 60 15 90 1 270 329 74 17 58 28 71 79 95 94 112 111 86 81 85 84 82
127 148 273 153 178 221 186 273 290 347 260 267 310 318 316 22 325 298 250 297 288 309 327 349 341 346 72 345 307 30 316 142 118 212 132 170 131 151 127 106 92 102 99 97 92